Hourly Weather Roundup
Issued by NWS Central Illinois

Home | Current Version | Previous Version | Text Only | Print | Product List | Glossary On
Versions: 1 2 3 4 5 6 7 8 9 10 11 12 13 14 15 16 17 18 19 20 21 22 23 24 25 26 27 28 29 30 31 32 33 34 35 36 37 38 39 40 41 42 43 44 45 46 47 48 49 50
000
NZUS43 KILX 301610
HWRILX

AREA WEATHER ROUNDUP
NATIONAL WEATHER SERVICE, LINCOLN IL
1000 AM CST FRI JAN 30 2015


CITY           SKY/WX    TMP DP  RH WIND       PRES   REMARKS
BLOOMINGTON    MOSUNNY   28  19  69 NE8       30.54R WCI  20
CHAMPAIGN      SUNNY     30  16  56 N9        30.53R WCI  22
DECATUR        SUNNY     31  19  61 NE7       30.54R WCI  24
FLORA          SUNNY     32  22  66 N10       30.56R WCI  24
GALESBURG      SUNNY     24  15  68 N7        30.56R WCI  16
JACKSONVILLE   SUNNY     30  18  62 CALM      30.57R
LACON          SUNNY     25  13  58 N3        30.55R
LAWRENCEVILLE  MOSUNNY   33  22  63 N9        30.54R WCI  25
LITCHFIELD     SUNNY     29  19  65 N8        30.55R WCI  22
$$


CITY           SKY/WX    TMP DP  RH WIND       PRES   REMARKS
LINCOLN        SUNNY     31  21  66 N5        30.57R WCI  26
MACOMB         SUNNY     26  18  70 NE8       30.58S WCI  18
MATTOON        MOSUNNY   30  19  63 N12       30.53R WCI  20
MT CARMEL AP   SUNNY     36  23  60 NW10      30.53R WCI  28
OLNEY-NOBLE AP MOSUNNY   32  23  69 N13       30.55R WCI  22
PARIS          MOSUNNY   31  20  63 NE7       30.54R WCI  24
PEORIA         SUNNY     29  16  58 NE7       30.56R WCI  22
PONTIAC        SUNNY     27  19  72 N6        30.55R WCI  20
RANTOUL        SUNNY     30  14  52 N10       30.53R WCI  21
ROBINSON       PTSUNNY   32  24  71 N9        30.54R WCI  25
SPRINGFIELD    SUNNY     30  18  60 N8        30.56R WCI  22
TAYLORVILLE    SUNNY     28  21  74 N10G16    30.55S WCI  19
$$

...REGIONAL REPORTS...


CITY           SKY/WX    TMP DP  RH WIND       PRES   REMARKS
CHICAGO O`HARE PTSUNNY   23   7  50 N8        30.52R WCI  14
KANKAKEE       SUNNY     27  14  57 NW8       30.53R WCI  19
MOLINE         SUNNY     24  11  57 NE5       30.57R WCI  18
MOUNT VERNON   MOSUNNY   34  19  55 N6        30.56R WCI  29
PITTSFIELD     SUNNY     29  19  65 N6        30.57R WCI  23
QUINCY         SUNNY     27  16  63 NE7       30.56R WCI  19
ROCKFORD       PTSUNNY   23   8  52 N7        30.56R WCI  15
$$


CITY           SKY/WX    TMP DP  RH WIND       PRES   REMARKS
BURLINGTON     SUNNY     25  15  66 VRB3      30.56R
CEDAR RAPIDS   SUNNY     20  12  71 VRB3      30.54F
DES MOINES     MOSUNNY   22  13  68 CALM      30.56S
KIRKSVILLE     SUNNY     25  18  74 E6        30.56R WCI  18
OTTUMWA        SUNNY     23  13  65 VRB3      30.55R
ST LOUIS       MOSUNNY   32  17  54 NE6       30.56S WCI  26
$$


CITY           SKY/WX    TMP DP  RH WIND       PRES   REMARKS
TERRE HAUTE    SUNNY     31  17  56 NE8       30.52R WCI  23
EVANSVILLE     MOSUNNY   37  24  59 N9        30.53R WCI  30
INDIANAPOLIS   PTSUNNY   26  16  65 N12       30.49R WCI  16
LAFAYETTE      PTSUNNY   27  15  61 N10       30.52R WCI  17
MADISON        PTSUNNY   19   9  65 NW3       30.52R
MILWAUKEE      MOSUNNY   22   6  50 N6        30.52R WCI  14
$$




USA.gov is the U.S. government's official web portal to all federal, state and local government web resources and services.